Location: Hodgeman County Ambulance
(38.0844°N, 99.8949°W)
Time: 21:22:52
(UTC+00:00)

X-37B - Pass Details

Date: 25 September 2021
Orbit: 385 x 389 km, 45.0° (Epoch: 17 October)

Event Time Altitude Azimuth Distance (km) Brightness Sun altitude
Exits shadow 11:22:23 19° 308° (NW) 987 2.2 -14.1°
Maximum altitude 11:23:46 26° 349° (N) 795 2.1 -13.9°
Drops below altitude 10° 11:26:32 10° 49° (NE) 1,415 4.4 -13.3°
Sets 11:28:48 0° 63° (ENE) 2,271 6.0 -12.9°
